Temperature
16 16 17 17 14 12 13 14 15 16 15 16 16 15 13 13 13 13 12 12 12 13 13 13 13 12 12 12 12 13 13 13 13 13 13 13 14 14 14 14 14 14 14 14 14 14 14 14 14
16 16 17 16 12 12 13 14 14 15 16 16 15 14 13 12 12 12 12 12 12 12 12 12 12 12 12 12 12 12 13 13 13 13 13 13 13 13 13 14 14 14 14 14 14 14 14 14 13
16 16 16 12 12 12 14 14 14 14 16 16 14 13 12 11 12 12 12 12 12 12 12 12 12 12 12 12 12 12 12 12 13 13 13 13 13 13 13 13 13 13 13 14 14 14 13 13 13
16 16 15 12 13 13 14 14 14 14 15 15 14 11 11 11 11 12 12 12 12 12 12 12 12 12 12 12 12 12 12 12 12 12 12 12 12 13 13 13 13 13 13 13 13 13 13 13 13
15 15 12 11 12 13 13 14 14 14 14 14 13 11 10 11 11 12 12 12 12 12 12 12 11 11 12 12 12 12 12 12 12 12 12 12 12 12 12 12 12 13 13 13 13 13 13 13 13
15 12 11 11 12 13 13 14 14 13 13 13 12 10 10 11 11 11 11 11 11 11 11 11 11 11 11 11 11 11 11 11 11 12 12 12 12 12 12 12 12 12 12 12 12 12 12 12 12
13 10 11 12 12 12 13 14 13 12 12 12 13 10 9 10 11 11 11 11 11 11 11 11 11 11 11 11 11 11 11 11 11 11 11 12 12 12 12 12 12 12 12 12 12 12 12 12 12
14 10 11 11 12 12 13 13 13 13 12 12 12 10 9 10 10 10 10 10 10 11 11 11 11 11 11 11 11 11 11 11 11 11 11 11 11 11 11 11 12 12 11 11 12 12 12 12 12
13 10 10 11 12 12 12 12 12 12 12 11 11 11 11 10 10 10 10 10 10 10 10 10 10 10 10 10 10 11 11 11 11 11 11 11 11 11 11 11 11 11 11 11 11 11 11 11 11
12 9 11 11 11 11 11 11 11 11 10 10 10 10 10 10 10 10 10 10 10 10 10 10 10 10 10 10 10 10 10 10 10 10 10 10 10 10 11 11 11 11 11 11 11 11 11 11 11
10 9 10 11 11 11 11 11 11 10 9 9 10 10 10 10 10 9 9 10 10 9 9 9 9 9 9 10 10 10 10 10 10 10 10 10 10 10 10 10 10 10 10 10 10 10 11 11 11
9 9 10 10 11 11 10 10 10 10 10 10 10 10 10 9 9 9 9 9 9 9 9 9 9 9 9 9 9 9 9 9 9 9 9 9 10 10 10 10 10 10 10 10 10 10 10 10 10
9 9 9 10 10 10 10 9 9 9 9 10 10 9 9 9 9 9 9 9 9 9 9 8 8 8 9 9 9 9 9 9 9 9 9 9 9 9 9 9 9 9 9 9 9 10 10 10 10
9 9 9 9 9 9 9 8 8 8 9 9 9 9 9 9 9 8 8 8 8 8 8 8 8 8 8 8 8 8 8 8 8 8 8 8 9 9 9 9 9 9 9 9 9 9 9 9 9
9 8 8 8 8 8 8 7 7 9 9 8 8 8 8 8 8 8 8 8 8 8 8 8 8 7 7 8 8 8 8 8 8 8 8 8 8 8 8 8 8 8 8 8 8 8 8 9 9
8 7 7 8 8 8 8 8 7 8 8 7 7 7 7 7 8 8 8 8 8 8 7 7 7 7 7 7 7 7 7 7 7 7 7 7 7 8 8 8 8 8 8 8 8 8 8 8 8
7 7 7 8 7 7 7 6 6 7 7 6 6 6 6 7 7 7 7 7 7 7 7 7 7 7 7 7 6 7 7 6 6 6 7 7 7 7 7 7 7 7 7 7 7 7 7 8 8
7 6 7 7 7 6 5 5 5 6 6 6 6 6 6 6 7 7 7 7 7 7 6 6 6 6 6 6 6 6 6 6 6 6 6 6 6 6 6 6 6 6 6 7 7 7 7 7 7
7 7 7 7 7 6 5 5 5 6 5 5 5 5 5 6 6 6 6 6 6 6 6 6 6 6 6 6 6 5 5 5 5 5 5 5 5 5 5 5 5 6 6 6 6 6 6 6 6
7 6 6 6 6 6 4 4 4 4 4 5 5 5 5 5 5 6 6 6 6 6 5 5 5 5 5 5 5 5 5 5 5 5 5 5 5 5 5 5 5 5 5 5 5 5 5 5 5
6 6 5 5 5 4 4 4 4 4 4 5 5 5 5 5 5 5 5 5 5 5 5 5 5 5 5 5 4 4 4 4 4 4 4 4 4 4 4 4 4 4 4 5 5 5 5 5 5
5 5 5 5 4 3 4 4 4 3 3 3 4 4 4 5 5 5 5 5 5 5 5 4 4 4 4 4 4 4 4 4 4 4 4 4 4 4 4 4 4 4 4 4 4 4 4 4 4
4 5 4 4 3 3 3 3 3 3 3 3 3 4 4 4 4 4 4 4 4 4 4 4 4 4 4 4 3 3 3 3 3 3 3 3 3 3 3 3 3 3 3 4 4 4 4 4 4
4 3 3 2 2 3 3 2 3 2 3 3 3 3 4 4 4 4 4 4 4 4 4 3 3 3 3 3 3 3 3 3 3 3 3 3 3 3 3 3 3 3 3 3 3 3 3 3 3
3 3 3 3 2 3 2 2 3 2 2 2 2 3 3 3 3 3 3 3 3 3 3 3 3 3 3 3 2 2 2 2 2 2 2 2 2 2 2 2 2 2 2 3 3 3 3 3 3
3 3 4 4 3 3 2 2 2 1 1 2 2 3 3 2 3 3 3 3 2 2 2 2 2 2 2 2 2 2 2 1 1 2 2 1 2 2 2 2 2 2 2 2 2 2 2 2 2
3 2 2 2 1 2 2 1 2 1 0 0 0 1 1 2 2 2 2 2 2 2 2 2 2 2 2 2 1 1 1 1 1 1 1 1 1 1 1 1 1 1 1 1 2 2 2 2 2
2 1 1 1 2 3 2 2 2 1 0 -0 -1 -0 1 1 1 1 2 2 2 2 1 1 1 1 1 1 1 1 0 0 0 0 0 0 0 0 1 1 1 1 1 1 1 1 1 1 1
1 1 0 0 1 2 2 2 1 0 -0 -1 -1 -0 0 1 1 1 1 1 1 1 1 1 1 1 0 0 0 -0 -0 -0 -0 -0 -0 -0 -0 -0 0 0 0 0 1 0 1 1 1 1 1
-0 -0 -0 1 0 -0 0 1 0 -1 -1 -1 -1 -0 0 0 0 1 1 1 1 0 0 0 0 -0 -0 -0 -1 -1 -1 -1 -1 -1 -1 -1 -1 -1 -1 -0 -0 -0 0 0 0 0 0 0 0
Wind_Speed
11 8 2 4 5 4 2 4 2 1 1 1 3 7 7 5 4 4 1 2 4 4 6 8 9 9 9 10 11 10 10 10 10 11 11 11 11 11 11 11 11 12 12 12 12 12 12 12 12
6 3 4 4 4 2 4 4 3 2 3 3 5 6 6 4 3 5 2 1 5 6 7 8 9 9 9 10 10 10 10 9 9 10 10 10 10 10 11 11 11 11 12 12 12 11 12 12 12
4 2 4 4 3 6 5 4 5 2 1 3 4 5 4 3 3 3 2 3 6 7 8 8 9 9 9 9 10 10 10 9 9 9 10 10 10 10 10 10 10 10 11 11 11 11 11 11 11
3 4 4 3 4 5 4 3 4 3 1 3 5 5 3 2 1 2 4 5 7 7 8 9 9 9 9 9 10 10 9 9 8 8 9 9 9 9 9 9 10 10 10 10 10 10 10 11 11
4 4 3 1 5 4 3 3 3 2 2 2 5 5 2 3 3 5 6 7 8 6 7 8 10 10 9 9 9 9 8 8 8 8 8 8 8 8 8 9 9 9 9 9 9 9 10 10 10
3 3 3 5 6 3 3 2 2 2 2 2 5 5 2 1 3 4 6 7 7 7 7 8 9 10 10 9 9 8 8 8 7 7 7 8 8 8 8 8 8 8 8 8 8 9 9 9 9
4 3 4 6 5 4 3 1 2 3 2 1 4 6 2 1 1 4 6 7 7 7 7 7 8 8 8 8 9 8 7 7 7 7 7 7 7 7 7 7 7 7 8 7 8 8 8 8 8
4 3 3 4 6 5 2 1 1 2 2 1 4 7 4 3 2 5 7 7 7 7 7 7 8 8 7 7 7 8 7 7 6 7 7 8 7 7 7 6 6 6 6 7 7 7 7 7 7
3 2 5 6 7 4 2 2 1 1 3 2 2 3 4 7 7 7 6 5 5 5 5 6 6 7 6 6 6 6 7 6 6 6 7 7 7 6 5 5 6 5 5 6 7 6 7 7 6
3 4 7 3 4 4 2 2 1 1 1 1 2 3 6 8 8 8 6 5 4 3 3 4 5 5 5 5 6 6 6 5 5 6 6 6 6 5 5 5 5 5 5 5 6 6 6 6 6
3 5 3 1 1 2 2 1 1 3 2 4 4 6 7 7 7 7 6 5 4 3 3 3 3 4 5 4 4 4 4 5 5 5 5 5 5 5 5 5 5 5 5 5 5 5 5 5 5
2 2 2 1 0 1 2 2 1 3 5 3 6 9 9 9 8 7 6 5 4 3 3 2 3 3 4 4 4 4 4 3 4 4 4 4 4 4 4 4 4 4 4 4 4 4 4 4 4
3 3 1 1 2 1 2 2 2 3 3 3 6 8 9 9 7 5 5 4 4 3 3 2 2 3 3 3 3 3 3 3 3 4 4 4 3 3 3 3 3 3 3 3 3 3 3 3 3
2 2 2 2 2 1 2 2 2 6 4 5 6 7 7 7 7 5 4 4 3 3 3 2 2 2 2 2 2 2 2 3 3 3 3 4 4 3 2 2 2 2 2 2 2 2 2 2 3
1 0 2 3 3 3 2 4 6 6 5 5 5 5 5 5 5 6 5 5 4 4 3 3 3 2 2 2 2 2 3 3 3 3 3 4 4 3 3 2 1 1 1 2 3 3 3 3 3
2 1 2 4 3 3 4 8 5 5 7 5 4 4 5 5 5 5 5 4 4 4 3 3 2 2 2 2 1 2 3 3 3 3 3 4 4 3 3 2 1 1 2 2 2 2 1 1 1
1 2 4 3 3 3 5 7 4 4 6 6 5 5 5 4 4 4 4 4 4 5 4 3 2 2 2 2 2 2 2 3 3 3 3 3 3 3 3 2 1 1 2 2 2 1 1 1 1
4 4 4 5 3 3 6 8 5 4 6 6 6 5 4 5 6 5 5 4 4 4 4 3 2 2 2 2 2 2 2 2 2 2 2 3 3 2 3 2 2 2 2 1 1 1 1 1 1
4 4 5 4 2 3 7 9 8 6 6 6 6 6 6 6 4 4 4 4 4 4 3 3 3 2 2 2 2 1 1 0 0 1 1 2 2 2 3 2 1 2 1 1 2 2 2 1 1
3 3 3 3 2 3 5 8 7 6 7 7 8 8 8 5 3 3 4 4 4 4 4 3 3 3 3 2 2 1 1 1 0 1 0 1 1 2 2 1 1 1 1 1 2 2 1 1 1
3 5 5 3 3 1 2 6 4 3 3 4 5 6 6 7 6 5 4 4 4 4 5 4 4 3 3 2 1 1 1 1 0 1 1 1 2 1 1 1 1 1 1 1 1 2 3 3 1
5 4 3 2 1 3 1 4 6 4 3 5 6 5 6 5 5 5 5 4 4 4 3 3 3 3 3 3 3 3 2 2 2 2 2 2 2 2 2 2 1 2 1 2 2 1 2 4 3
4 1 1 2 2 2 2 3 7 2 5 7 6 6 5 5 5 5 5 5 4 3 3 3 2 2 2 3 4 3 2 1 1 1 1 2 2 2 2 2 2 1 2 2 2 1 1 2 3
2 3 3 2 2 4 6 6 7 5 7 5 4 5 5 4 4 4 3 3 2 2 2 2 3 2 2 2 3 4 3 2 1 1 2 2 1 2 2 2 2 2 2 3 2 2 2 1 2
3 4 2 3 1 6 3 5 8 5 4 4 4 4 3 4 4 4 3 3 3 3 3 3 3 3 2 2 2 3 4 4 4 3 3 3 2 2 3 2 2 2 2 3 3 2 2 2 1
3 5 5 4 5 4 2 7 6 3 1 0 1 2 3 3 3 4 5 5 4 4 3 3 3 3 3 3 3 3 3 3 3 4 3 4 3 3 4 3 3 3 3 3 3 2 2 2 1
4 4 3 4 0 3 6 6 5 1 2 1 0 0 2 3 3 3 4 4 4 4 4 4 4 3 3 3 2 2 3 3 3 3 3 3 3 3 3 3 3 3 3 3 3 2 2 2 2
2 4 4 4 3 5 5 5 5 5 5 3 2 3 3 2 2 2 2 3 4 4 3 3 3 4 3 3 3 2 3 3 3 3 4 3 3 3 3 3 3 3 3 3 3 2 2 2 2
2 2 3 3 4 4 4 6 4 5 5 5 5 4 3 3 2 3 3 2 2 1 2 3 3 2 2 3 3 3 3 3 3 3 3 3 3 3 4 4 3 3 3 3 3 2 2 2 2
2 4 6 4 5 4 4 6 3 2 2 3 4 3 2 2 2 2 2 1 1 1 1 2 2 2 3 3 2 3 3 3 3 3 3 3 3 3 4 4 4 4 4 4 4 4 4 3 3
Wind_Direction
332 339 56 58 62 61 227 246 213 173 100 84 83 93 105 101 118 142 156 115 99 118 136 137 126 119 112 107 101 99 97 96 94 93 92 89 85 84 81 78 76 75 75 74 70 66 63 62 61
332 1 56 64 105 162 247 235 199 208 175 137 82 81 83 80 76 105 101 102 104 107 120 125 123 119 115 110 106 100 97 98 98 95 93 91 88 86 83 81 79 77 76 75 72 67 62 59 61
329 53 85 88 145 188 205 216 188 204 98 106 78 58 92 114 111 138 165 122 99 95 104 111 118 119 116 112 109 105 100 98 98 96 94 92 89 87 85 83 80 78 77 75 73 69 63 60 64
52 51 63 97 201 220 203 210 177 159 54 61 103 81 65 39 152 148 127 106 103 89 97 102 107 109 110 112 112 108 103 98 96 98 97 94 90 87 86 86 82 79 79 76 73 69 66 62 62
61 84 92 203 228 234 225 217 175 149 142 83 107 114 101 346 70 111 111 102 106 95 98 104 100 100 97 98 103 109 106 102 98 97 100 96 92 88 89 90 86 82 82 81 76 71 67 64 60
63 84 142 213 222 224 246 228 176 150 142 99 108 122 154 345 84 105 104 99 105 102 94 98 101 99 95 91 88 96 105 102 98 96 95 96 94 91 94 95 90 86 84 80 78 74 70 66 62
120 126 184 199 208 221 228 195 171 167 167 179 134 126 162 303 106 110 104 96 92 92 87 83 91 95 96 92 88 82 87 97 98 93 90 92 95 93 94 99 97 89 85 83 80 76 74 69 63
132 127 175 202 202 218 216 177 166 153 180 100 115 141 182 213 144 104 97 89 86 77 73 76 79 82 86 91 92 85 80 84 96 94 91 89 91 92 92 96 101 96 90 86 81 77 74 72 66
98 123 201 205 196 198 183 158 322 63 106 80 73 148 169 143 123 105 92 78 81 75 64 64 72 76 80 84 86 83 83 81 90 94 92 90 87 86 87 93 97 99 95 90 83 78 75 72 68
110 184 214 211 175 164 168 160 175 99 118 104 65 63 110 126 126 123 122 123 113 100 82 66 64 70 79 82 81 77 77 78 83 90 94 93 91 91 87 89 91 91 89 86 81 81 76 71 66
152 189 199 183 152 144 147 159 169 145 202 199 180 154 139 132 132 138 143 147 149 143 105 77 71 74 75 77 82 80 77 73 74 79 93 100 94 87 82 82 80 80 84 79 77 80 74 69 70
176 231 179 200 205 141 163 162 168 190 212 186 158 152 149 148 155 159 157 151 138 126 115 86 73 75 76 87 88 87 80 76 72 68 79 100 95 83 80 79 75 78 81 75 74 82 76 68 71
208 220 237 195 90 123 142 189 200 232 201 130 130 144 157 161 165 165 153 142 137 142 134 116 81 81 84 90 92 92 88 84 80 74 73 84 94 96 93 90 83 79 74 70 77 86 84 72 68
198 189 228 243 217 225 185 245 206 239 168 136 142 159 172 171 170 157 147 151 159 162 159 148 112 94 94 94 98 111 110 108 95 79 74 77 83 101 103 97 81 65 59 62 74 89 99 92 86
104 88 309 252 213 203 156 277 236 217 151 151 166 173 172 177 170 172 175 178 180 176 166 159 148 114 109 106 109 115 123 121 108 98 85 79 73 83 108 111 105 82 77 87 82 75 83 81 78
62 84 262 258 196 186 170 247 242 193 162 178 186 179 176 185 185 180 174 178 175 162 165 174 154 133 120 109 109 112 124 117 112 110 93 83 78 78 90 105 131 148 122 108 102 97 89 71 71
54 218 237 255 208 175 193 241 247 186 173 190 193 191 190 194 199 196 184 178 171 164 165 169 161 148 127 104 89 103 111 107 110 113 105 99 93 83 94 92 96 133 122 118 131 109 123 119 75
208 219 232 234 222 189 220 243 254 211 194 203 198 194 195 202 212 201 188 176 165 158 162 166 155 135 114 104 85 79 78 82 100 115 119 118 114 99 88 97 72 74 118 140 138 130 106 140 147
187 200 233 247 228 207 235 253 256 233 206 210 207 201 205 216 217 191 179 167 156 152 158 163 153 148 133 140 149 161 193 193 77 84 134 129 121 121 100 86 113 81 120 172 155 143 138 146 136
205 225 245 278 283 232 259 268 259 232 215 207 204 205 206 206 199 185 179 171 170 170 173 171 169 168 168 169 179 190 191 204 226 354 337 155 144 143 131 119 175 133 95 106 159 136 161 192 161
228 212 219 244 321 314 317 296 263 253 223 211 206 204 200 196 195 188 183 186 179 181 188 184 184 179 173 138 108 86 66 39 6 295 276 271 216 194 167 157 189 173 150 167 194 175 171 185 217
235 224 201 208 291 274 167 276 265 235 247 230 220 206 203 197 189 190 186 191 192 192 182 181 186 181 175 149 151 150 166 205 238 242 247 266 239 223 203 175 195 183 172 189 199 188 197 176 193
204 199 201 208 186 283 248 218 274 233 237 239 226 211 208 198 188 193 190 193 197 185 177 182 174 176 179 168 171 172 185 218 255 252 237 245 263 232 219 204 193 202 192 198 202 200 213 195 191
159 66 44 61 109 252 222 194 265 226 219 227 225 212 203 193 188 194 189 176 180 181 177 180 179 181 172 168 180 186 194 210 232 249 237 248 260 255 254 232 213 219 213 204 206 205 206 212 204
87 97 27 345 308 247 205 204 248 243 219 202 212 216 192 181 183 183 185 191 193 194 194 193 191 196 186 177 193 206 206 207 218 225 229 235 240 254 250 257 240 236 234 218 202 200 208 197 200
201 161 170 209 234 272 259 231 249 253 282 246 202 197 183 187 194 199 199 198 201 201 201 196 201 206 194 193 214 218 213 219 228 231 229 228 231 238 242 245 244 245 232 225 207 203 208 195 197
163 201 179 144 148 264 258 274 295 287 320 313 37 91 214 212 212 215 207 199 201 201 205 201 207 216 211 206 215 226 225 230 242 244 237 234 242 246 237 233 236 240 236 223 203 203 210 186 197
152 146 114 150 190 250 273 258 248 249 246 251 254 249 255 243 249 249 230 213 208 203 207 204 207 220 225 216 215 232 235 237 240 241 242 240 245 241 231 231 236 236 237 226 202 202 204 194 209
145 149 151 167 183 193 253 262 234 220 221 225 233 237 238 241 246 257 260 246 231 221 202 204 213 215 224 226 227 235 239 239 236 234 244 244 243 234 229 230 229 229 225 220 204 212 205 208 223
202 191 162 179 226 209 223 266 279 220 225 209 233 250 262 255 270 281 272 262 247 257 252 235 232 226 226 224 230 239 243 237 234 242 247 250 244 245 236 231 232 233 226 219 210 212 213 213 219
Height
1520 1521 1522 1523 1527 1537 1539 1534 1528 1527 1526 1526 1526 1526 1529 1534 1537 1544 1541 1540 1541 1542 1544 1545 1546 1546 1547 1547 1547 1547 1548 1548 1548 1548 1548 1548 1548 1548 1548 1548 1548 1549 1549 1548 1548 1548 1547 1547 1547
1520 1521 1523 1523 1532 1543 1539 1530 1528 1526 1525 1526 1527 1528 1530 1534 1535 1537 1538 1539 1541 1542 1543 1544 1545 1546 1547 1547 1547 1547 1548 1548 1548 1548 1549 1549 1549 1549 1549 1549 1549 1549 1549 1549 1549 1548 1548 1548 1547
1519 1520 1522 1525 1534 1538 1533 1527 1526 1525 1525 1525 1527 1529 1532 1535 1535 1536 1538 1539 1540 1542 1543 1544 1545 1546 1546 1547 1547 1547 1548 1548 1548 1548 1549 1549 1549 1549 1549 1549 1549 1549 1549 1549 1549 1549 1548 1548 1548
1519 1521 1523 1529 1532 1529 1526 1524 1524 1524 1525 1525 1527 1531 1533 1536 1536 1537 1537 1538 1540 1541 1542 1543 1544 1545 1546 1547 1547 1547 1547 1548 1548 1548 1548 1549 1549 1549 1549 1549 1549 1549 1549 1549 1549 1549 1548 1548 1548
1518 1519 1527 1532 1530 1526 1524 1523 1524 1524 1525 1526 1527 1531 1534 1536 1536 1536 1537 1538 1539 1540 1541 1543 1544 1544 1545 1546 1546 1547 1547 1547 1548 1548 1548 1548 1548 1548 1549 1549 1548 1549 1549 1549 1548 1549 1548 1548 1548
1518 1520 1531 1532 1527 1525 1524 1523 1524 1524 1525 1526 1527 1531 1534 1535 1535 1536 1537 1538 1539 1540 1541 1542 1543 1544 1545 1545 1546 1546 1547 1547 1547 1547 1548 1548 1548 1548 1548 1548 1548 1548 1548 1548 1548 1548 1548 1548 1548
1518 1523 1527 1527 1526 1525 1523 1522 1523 1524 1525 1526 1527 1530 1532 1534 1535 1536 1536 1538 1539 1539 1540 1541 1542 1543 1544 1545 1545 1546 1546 1547 1547 1547 1547 1547 1547 1547 1548 1548 1548 1548 1548 1548 1548 1548 1548 1548 1548
1516 1521 1525 1525 1524 1523 1522 1522 1523 1524 1525 1527 1527 1528 1530 1532 1533 1535 1536 1537 1538 1539 1539 1540 1541 1542 1543 1544 1544 1545 1545 1546 1546 1546 1546 1546 1547 1547 1547 1547 1547 1547 1547 1547 1547 1547 1547 1547 1548
1516 1523 1524 1521 1521 1521 1521 1522 1523 1524 1524 1525 1526 1527 1528 1530 1532 1533 1534 1536 1537 1537 1538 1539 1540 1540 1541 1542 1543 1544 1544 1545 1545 1545 1545 1546 1546 1546 1546 1546 1546 1546 1546 1546 1546 1547 1547 1547 1547
1514 1522 1519 1517 1517 1519 1520 1521 1522 1523 1524 1525 1525 1525 1527 1528 1530 1530 1531 1532 1534 1535 1536 1537 1538 1539 1540 1541 1542 1542 1543 1544 1544 1544 1544 1544 1544 1545 1545 1545 1545 1545 1545 1545 1545 1546 1546 1546 1546
1514 1517 1516 1516 1516 1517 1519 1521 1522 1522 1523 1523 1523 1524 1525 1526 1528 1529 1530 1531 1532 1533 1535 1536 1537 1538 1539 1539 1540 1541 1541 1542 1542 1543 1543 1543 1543 1543 1543 1544 1544 1544 1544 1544 1544 1545 1545 1545 1545
1514 1515 1515 1516 1516 1517 1518 1520 1521 1521 1521 1521 1522 1523 1523 1524 1525 1527 1528 1529 1531 1532 1533 1534 1535 1536 1537 1538 1538 1539 1539 1540 1540 1541 1541 1541 1541 1541 1541 1542 1542 1542 1542 1542 1543 1543 1543 1543 1544
1513 1514 1515 1516 1516 1517 1518 1519 1519 1519 1520 1520 1521 1522 1522 1523 1524 1525 1527 1528 1529 1530 1531 1532 1533 1534 1535 1536 1536 1537 1537 1538 1538 1539 1539 1539 1540 1540 1540 1540 1540 1541 1541 1541 1541 1541 1541 1542 1542
1513 1514 1515 1515 1515 1516 1517 1518 1519 1517 1518 1519 1519 1520 1521 1521 1522 1524 1525 1526 1527 1528 1529 1531 1531 1532 1533 1534 1534 1535 1535 1536 1536 1537 1537 1538 1538 1538 1538 1538 1538 1539 1539 1539 1539 1539 1539 1540 1540
1513 1515 1515 1514 1515 1516 1517 1518 1516 1515 1516 1517 1517 1518 1519 1520 1521 1521 1522 1524 1525 1526 1527 1528 1529 1530 1531 1532 1532 1533 1533 1534 1534 1535 1535 1535 1536 1536 1535 1536 1536 1536 1537 1537 1537 1537 1537 1538 1538
1514 1516 1518 1514 1514 1515 1519 1517 1513 1514 1514 1514 1515 1516 1517 1518 1519 1520 1521 1522 1523 1524 1525 1526 1527 1528 1529 1530 1530 1531 1531 1532 1532 1532 1533 1533 1533 1533 1533 1533 1534 1534 1534 1534 1534 1534 1535 1535 1536
1517 1519 1516 1514 1513 1514 1516 1515 1512 1512 1512 1512 1513 1514 1515 1516 1517 1517 1518 1520 1520 1521 1523 1524 1525 1525 1526 1527 1528 1529 1529 1529 1530 1530 1530 1530 1531 1531 1531 1530 1531 1531 1531 1531 1532 1532 1532 1533 1533
1517 1518 1516 1515 1512 1514 1515 1513 1510 1510 1510 1510 1511 1511 1512 1513 1514 1515 1516 1517 1518 1519 1520 1521 1522 1523 1524 1525 1525 1526 1526 1527 1527 1527 1527 1528 1528 1528 1528 1528 1528 1528 1528 1528 1528 1529 1530 1530 1530
1512 1514 1515 1513 1511 1514 1513 1511 1508 1507 1508 1507 1508 1509 1509 1510 1512 1513 1514 1515 1516 1516 1518 1518 1519 1520 1521 1521 1522 1522 1523 1523 1524 1524 1525 1525 1525 1525 1525 1525 1525 1524 1524 1525 1525 1526 1527 1527 1528
1511 1514 1514 1513 1512 1513 1513 1510 1505 1503 1503 1503 1504 1505 1506 1508 1509 1510 1511 1511 1512 1513 1514 1516 1516 1517 1518 1518 1519 1520 1520 1520 1521 1522 1522 1522 1522 1522 1522 1522 1521 1521 1521 1521 1522 1522 1523 1524 1525
1511 1513 1514 1514 1513 1513 1514 1509 1504 1501 1500 1500 1501 1501 1503 1504 1505 1506 1508 1509 1509 1510 1512 1512 1513 1514 1515 1515 1516 1517 1518 1518 1518 1518 1519 1519 1519 1519 1519 1519 1519 1518 1518 1518 1519 1519 1520 1520 1522
1511 1510 1511 1513 1517 1519 1517 1517 1504 1502 1500 1498 1498 1498 1499 1500 1502 1503 1505 1506 1507 1508 1509 1510 1511 1511 1512 1512 1513 1513 1513 1513 1514 1515 1515 1516 1516 1516 1516 1516 1516 1516 1516 1516 1516 1516 1517 1517 1518
1509 1509 1511 1513 1517 1521 1519 1521 1506 1501 1499 1495 1495 1495 1496 1498 1499 1501 1502 1503 1504 1505 1506 1507 1508 1508 1509 1509 1510 1510 1511 1511 1512 1512 1513 1513 1513 1513 1513 1513 1513 1513 1512 1513 1513 1513 1513 1514 1515
1509 1511 1514 1518 1520 1519 1515 1519 1506 1500 1494 1492 1492 1492 1493 1495 1497 1498 1499 1500 1501 1502 1503 1503 1504 1505 1505 1505 1506 1507 1508 1508 1508 1509 1509 1509 1509 1510 1510 1510 1510 1510 1509 1509 1509 1510 1510 1510 1511
1509 1515 1521 1519 1522 1515 1512 1514 1502 1493 1490 1489 1489 1489 1491 1492 1494 1495 1496 1497 1498 1498 1499 1500 1501 1501 1502 1502 1503 1503 1504 1505 1505 1505 1505 1505 1505 1505 1506 1506 1506 1506 1506 1506 1506 1507 1507 1507 1508
1509 1511 1516 1517 1517 1513 1512 1509 1497 1491 1489 1488 1488 1488 1489 1490 1491 1492 1493 1494 1495 1495 1496 1497 1497 1498 1498 1499 1499 1500 1501 1501 1501 1502 1502 1502 1502 1502 1502 1503 1503 1503 1503 1503 1503 1503 1504 1504 1504
1508 1511 1510 1517 1522 1520 1511 1504 1495 1490 1489 1488 1488 1488 1488 1488 1489 1490 1490 1491 1492 1493 1493 1494 1494 1495 1495 1495 1496 1496 1497 1497 1497 1498 1498 1498 1498 1498 1499 1499 1499 1499 1499 1499 1499 1499 1500 1500 1500
1507 1509 1515 1517 1517 1512 1507 1504 1497 1490 1489 1488 1488 1487 1487 1487 1487 1488 1489 1489 1489 1490 1491 1491 1492 1492 1492 1492 1492 1493 1493 1494 1494 1494 1494 1494 1494 1495 1495 1495 1495 1495 1495 1495 1495 1495 1495 1496 1496
1510 1511 1512 1515 1515 1513 1509 1500 1489 1487 1486 1487 1487 1486 1486 1486 1486 1486 1486 1486 1487 1487 1487 1487 1488 1488 1488 1488 1489 1489 1489 1490 1490 1490 1490 1490 1490 1490 1490 1491 1491 1491 1491 1491 1490 1490 1491 1492 1492
1508 1508 1511 1511 1513 1515 1511 1500 1486 1486 1485 1485 1485 1485 1485 1484 1484 1484 1483 1483 1484 1484 1484 1484 1484 1484 1485 1485 1485 1485 1485 1485 1485 1485 1485 1485 1485 1486 1486 1486 1486 1486 1487 1487 1486 1487 1487 1487 1488